This demonstration page uses our WeatherBlox Daily Observations layout. Learn more.

Left ArrowRight Arrow

Hourly Observations for February 8, 2021

Temp ( °F °C ) Dew Point ( °F °C ) Humidity (%) Winds ( mph kmh ) Pressure ( in mb ) Visibility ( mi km ) Precip ( " mm )
12:54 am 00:54 Cloudy 3 -16.1 -5 -20.6 69 69 E 8 13 30.34 1028 10 16.0934 0 0
1:46 am 01:46 Mostly Cloudy 2 -16.7 -4 -20 76 76 NNE 10 17 30.39 1029 9 14.48406 0 0
1:54 am 01:54 Partly Cloudy 2 -16.7 -4 -20 76 76 NE 8 13 30.32 1027 10 16.0934 0 0
2:54 am 02:54 Clear 1 -17.2 -5 -20.6 75 75 N 9 15 30.34 1027 10 16.0934 0 0
3:54 am 03:54 Clear -3 -19.4 -9 -22.8 75 75 N 6 9 30.35 1028 10 16.0934 0 0
4:54 am 04:54 Partly Cloudy -2 -18.9 -8 -22.2 75 75 NNW 6 9 30.35 1028 10 16.0934 0 0
5:54 am 05:54 Clear -6 -21.1 -11 -23.9 78 78 N 7 11 30.34 1028 10 16.0934 0 0
6:54 am 06:54 Mostly Clear -2 -18.9 -9 -22.8 72 72 NNE 10 17 30.33 1027 10 16.0934 0 0
7:54 am 07:54 Sunny -3 -19.4 -10 -23.3 71 71 NNE 12 19 30.36 1028 10 16.0934 0 0
8:54 am 08:54 Mostly Sunny -2 -18.9 -9 -22.8 72 72 NE 12 19 30.38 1029 10 16.0934 0 0
9:54 am 09:54 Cloudy -1 -18.3 -8 -22.2 72 72 NNE 9 15 30.39 1029 10 16.0934 0 0
10:54 am 10:54 Cloudy 0 -17.8 -8 -22.2 69 69 NE 13 20 30.38 1029 10 16.0934 0 0
11:54 am 11:54 Cloudy 1 -17.2 -7 -21.7 68 68 NNE 12 19 30.38 1029 10 16.0934 0 0
12:54 pm 12:54 Cloudy 2 -16.7 -6 -21.1 69 69 NNE 9 15 30.37 1028 9 14.48406 0 0
1:54 pm 13:54 Cloudy 3 -16.1 -6 -21.1 66 66 NNE 10 17 30.35 1028 10 16.0934 0 0
2:54 pm 14:54 Cloudy 4 -15.6 -5 -20.6 66 66 N 13 20 30.35 1028 10 16.0934 0 0
3:54 pm 15:54 Cloudy 4 -15.6 -5 -20.6 66 66 N 13 20 30.37 1029 10 16.0934 0 0
4:54 pm 16:54 Partly Cloudy 3 -16.1 -7 -21.7 62 62 NNE 12 19 30.36 1028 10 16.0934 0 0
5:54 pm 17:54 Clear 0 -17.8 -9 -22.8 65 65 NNE 9 15 30.37 1028 10 16.0934 0 0
6:54 pm 18:54 Clear -3 -19.4 -10 -23.3 71 71 N 9 15 30.39 1029 10 16.0934 0 0
7:54 pm 19:54 Clear -1 -18.3 -8 -22.2 72 72 N 7 11 30.42 1030 10 16.0934 0 0
8:54 pm 20:54 Clear -5 -20.6 -10 -23.3 79 79 Calm 30.43 1030 10 16.0934 0 0
9:54 pm 21:54 Clear -10 -23.3 -14 -25.6 81 81 N 5 7 30.45 1031 10 16.0934 0 0
10:54 pm 22:54 Clear -9 -22.8 -13 -25 82 82 N 6 9 30.47 1032 10 16.0934 0 0
11:54 pm 23:54 Clear -14 -25.6 -17 -27.2 86 86 N 6 9 30.47 1032 10 16.0934 0 0

Powered by AerisWeather